When you browse on this site, cookies collect data to enhance your experience and personalize the content and advertising you see.
Visit our Privacy Policy to learn more. By continuing to use the site, you agree to this use of cookies and data.
  • Em Portugal
  • Lista de países
  • Para 7 dias
  • Temperatura da água
  • Mapa do tempo
  • Widgets de tempo
  • user-avatar
    Iniciar Sessão

    Previsão horária em Kabul

    Hoje, 2 Junho, Terça-feira

    Tempo Temperatura Precipitação Vento Pressão Humidade
    00:00 +19°C° 0 mm 2 m/s 610 mmHg 30%
    01:00 +19°C° 0 mm 2 m/s 610 mmHg 32%
    02:00 +18°C° 0 mm 2 m/s 609 mmHg 33%
    03:00 +18°C° 0 mm 1 m/s 609 mmHg 35%
    04:00 +18°C° 0 mm 1 m/s 609 mmHg 36%
    05:00 +16°C° 0 mm 1 m/s 608 mmHg 37%
    06:00 +19°C° 0 mm 1 m/s 609 mmHg 33%
    07:00 +20°C° 0 mm 1 m/s 610 mmHg 29%
    08:00 +21°C° 0 mm 1 m/s 611 mmHg 25%
    09:00 +23°C° 0 mm 2 m/s 611 mmHg 22%
    10:00 +24°C° 0 mm 2 m/s 612 mmHg 20%
    11:00 +25°C° 0 mm 2 m/s 612 mmHg 17%
    12:00 +26°C° 0 mm 3 m/s 612 mmHg 17%
    13:00 +27°C° 0 mm 3 m/s 612 mmHg 16%
    14:00 +27°C° 0 mm 3 m/s 612 mmHg 15%
    15:00 +27°C° 0 mm 4 m/s 612 mmHg 15%
    16:00 +28°C° 0 mm 5 m/s 611 mmHg 16%
    17:00 +28°C° 0 mm 6 m/s 611 mmHg 16%
    18:00 +26°C° 0 mm 5 m/s 611 mmHg 19%
    19:00 +25°C° 0 mm 5 m/s 611 mmHg 21%
    20:00 +22°C° 0 mm 4 m/s 610 mmHg 24%
    21:00 +22°C° 0 mm 4 m/s 610 mmHg 27%
    22:00 +21°C° 0 mm 3 m/s 610 mmHg 29%
    23:00 +20°C° 0 mm 2 m/s 610 mmHg 32%

    Amanhã, 3 Junho, Quarta-feira

    Tempo Temperatura Precipitação Vento Pressão Humidade
    00:00 +19°C° 0 mm 2 m/s 609 mmHg 34%
    01:00 +19°C° 0 mm 1 m/s 609 mmHg 36%
    02:00 +19°C° 0 mm 1 m/s 609 mmHg 39%
    03:00 +18°C° 0 mm 1 m/s 608 mmHg 39%
    04:00 +16°C° 0 mm 1 m/s 608 mmHg 39%
    05:00 +16°C° 0 mm 1 m/s 608 mmHg 39%
    06:00 +18°C° 0 mm 1 m/s 608 mmHg 33%
    07:00 +20°C° 0 mm 1 m/s 609 mmHg 28%
    08:00 +22°C° 0 mm 1 m/s 610 mmHg 23%
    09:00 +23°C° 0 mm 1 m/s 610 mmHg 21%
    10:00 +24°C° 0 mm 1 m/s 611 mmHg 19%
    11:00 +25°C° 0 mm 2 m/s 611 mmHg 17%
    12:00 +26°C° 0 mm 2 m/s 611 mmHg 16%
    13:00 +27°C° 0 mm 2 m/s 611 mmHg 16%
    14:00 +27°C° 0 mm 2 m/s 611 mmHg 15%
    15:00 +28°C° 0 mm 3 m/s 611 mmHg 15%
    16:00 +28°C° 0 mm 3 m/s 610 mmHg 15%
    17:00 +28°C° 0 mm 4 m/s 610 mmHg 16%
    18:00 +27°C° 0 mm 4 m/s 610 mmHg 18%
    19:00 +26°C° 0 mm 4 m/s 610 mmHg 21%
    20:00 +23°C° 0 mm 4 m/s 610 mmHg 24%
    21:00 +24°C° 0 mm 3 m/s 610 mmHg 28%
    22:00 +23°C° 0 mm 2 m/s 610 mmHg 33%
    23:00 +22°C° 0 mm 1 m/s 610 mmHg 37%

    Depois de amanhã, 4 Junho, Quinta-feira

    Tempo Temperatura Precipitação Vento Pressão Humidade
    00:00 +21°C° 0 mm 1 m/s 609 mmHg 39%
    01:00 +20°C° 0 mm 1 m/s 609 mmHg 41%
    02:00 +20°C° 0 mm 1 m/s 609 mmHg 42%
    03:00 +19°C° 0 mm 1 m/s 608 mmHg 43%
    04:00 +19°C° 0 mm 1 m/s 608 mmHg 43%
    05:00 +18°C° 0 mm 1 m/s 608 mmHg 44%
    06:00 +20°C° 0 mm 1 m/s 609 mmHg 38%
    07:00 +21°C° 0 mm 1 m/s 609 mmHg 32%
    08:00 +23°C° 0 mm 1 m/s 610 mmHg 26%
    09:00 +24°C° 0 mm 1 m/s 610 mmHg 24%
    10:00 +25°C° 0 mm 1 m/s 611 mmHg 22%
    11:00 +26°C° 0 mm 2 m/s 611 mmHg 20%
    12:00 +27°C° 0 mm 2 m/s 611 mmHg 19%
    13:00 +28°C° 0 mm 2 m/s 611 mmHg 18%
    14:00 +29°C° 0 mm 2 m/s 611 mmHg 17%
    15:00 +30°C° 0 mm 4 m/s 611 mmHg 16%
    16:00 +30°C° 0 mm 5 m/s 611 mmHg 15%
    17:00 +30°C° 0 mm 7 m/s 611 mmHg 15%
    18:00 +29°C° 0 mm 6 m/s 610 mmHg 17%
    19:00 +27°C° 0 mm 6 m/s 610 mmHg 19%
    20:00 +25°C° 0 mm 5 m/s 610 mmHg 20%
    21:00 +25°C° 0 mm 4 m/s 610 mmHg 22%
    22:00 +24°C° 0 mm 3 m/s 610 mmHg 24%
    23:00 +23°C° 0 mm 2 m/s 610 mmHg 26%

    5 Junho, Sexta-feira

    Tempo Temperatura Precipitação Vento Pressão Humidade
    00:00 +21°C° 0 mm 2 m/s 610 mmHg 27%
    01:00 +20°C° 0 mm 2 m/s 609 mmHg 28%
    02:00 +21°C° 0 mm 1 m/s 609 mmHg 30%
    03:00 +20°C° 0 mm 1 m/s 609 mmHg 30%
    04:00 +19°C° 0 mm 1 m/s 609 mmHg 31%
    05:00 +19°C° 0 mm 1 m/s 608 mmHg 32%
    06:00 +21°C° 0 mm 1 m/s 609 mmHg 28%
    07:00 +22°C° 0 mm 1 m/s 610 mmHg 25%
    08:00 +24°C° 0 mm 1 m/s 611 mmHg 21%
    09:00 +25°C° 0 mm 2 m/s 611 mmHg 20%
    10:00 +27°C° 0 mm 2 m/s 612 mmHg 18%
    11:00 +28°C° 0 mm 3 m/s 612 mmHg 16%
    12:00 +29°C° 0 mm 4 m/s 612 mmHg 15%
    13:00 +30°C° 0 mm 6 m/s 612 mmHg 14%
    14:00 +32°C° 0 mm 7 m/s 612 mmHg 13%
    15:00 +32°C° 0 mm 8 m/s 612 mmHg 13%
    16:00 +32°C° 0 mm 8 m/s 611 mmHg 13%
    17:00 +32°C° 0 mm 9 m/s 611 mmHg 13%
    18:00 +29°C° 0 mm 8 m/s 611 mmHg 15%
    19:00 +27°C° 0 mm 7 m/s 610 mmHg 18%
    20:00 +26°C° 0 mm 6 m/s 610 mmHg 20%
    21:00 +25°C° 0 mm 5 m/s 610 mmHg 22%
    22:00 +23°C° 0 mm 4 m/s 610 mmHg 24%
    23:00 +22°C° 0 mm 3 m/s 610 mmHg 26%

    6 Junho, Sábado

    Tempo Temperatura Precipitação Vento Pressão Humidade
    00:00 +21°C° 0 mm 2 m/s 610 mmHg 27%
    01:00 +20°C° 0 mm 2 m/s 609 mmHg 28%
    02:00 +20°C° 0 mm 2 m/s 609 mmHg 29%
    03:00 +20°C° 0 mm 1 m/s 609 mmHg 30%
    04:00 +20°C° 0 mm 1 m/s 609 mmHg 30%
    05:00 +19°C° 0 mm 1 m/s 609 mmHg 31%
    06:00 +21°C° 0 mm 1 m/s 609 mmHg 27%
    07:00 +23°C° 0 mm 1 m/s 610 mmHg 24%
    08:00 +25°C° 0 mm 2 m/s 611 mmHg 20%
    09:00 +26°C° 0 mm 2 m/s 612 mmHg 18%
    10:00 +28°C° 0 mm 3 m/s 612 mmHg 16%
    11:00 +29°C° 0 mm 4 m/s 613 mmHg 14%
    12:00 +30°C° 0 mm 6 m/s 613 mmHg 13%
    13:00 +32°C° 0 mm 7 m/s 612 mmHg 12%
    14:00 +33°C° 0 mm 9 m/s 612 mmHg 12%
    15:00 +33°C° 0 mm 9 m/s 612 mmHg 12%
    16:00 +32°C° 0 mm 9 m/s 612 mmHg 13%
    17:00 +32°C° 0 mm 10 m/s 611 mmHg 13%
    18:00 +29°C° 0 mm 8 m/s 611 mmHg 15%
    19:00 +27°C° 0 mm 7 m/s 611 mmHg 17%
    20:00 +26°C° 0 mm 5 m/s 610 mmHg 19%
    21:00 +25°C° 0 mm 5 m/s 610 mmHg 20%
    22:00 +23°C° 0 mm 4 m/s 610 mmHg 22%
    23:00 +22°C° 0 mm 3 m/s 610 mmHg 24%

    7 Junho, Domingo

    Tempo Temperatura Precipitação Vento Pressão Humidade
    00:00 +22°C° 0 mm 3 m/s 610 mmHg 26%
    01:00 +21°C° 0 mm 3 m/s 610 mmHg 28%
    02:00 +20°C° 0 mm 2 m/s 609 mmHg 30%
    03:00 +20°C° 0 mm 2 m/s 609 mmHg 32%
    04:00 +19°C° 0 mm 2 m/s 609 mmHg 33%
    05:00 +18°C° 0 mm 2 m/s 609 mmHg 35%
    06:00 +20°C° 0 mm 2 m/s 609 mmHg 31%
    07:00 +23°C° 0 mm 1 m/s 610 mmHg 27%
    08:00 +24°C° 0 mm 1 m/s 611 mmHg 23%
    09:00 +26°C° 0 mm 2 m/s 611 mmHg 20%
    10:00 +27°C° 0 mm 2 m/s 612 mmHg 18%
    11:00 +29°C° 0 mm 2 m/s 612 mmHg 15%
    12:00 +30°C° 0 mm 3 m/s 612 mmHg 14%
    13:00 +32°C° 0 mm 4 m/s 612 mmHg 13%
    14:00 +33°C° 0 mm 4 m/s 612 mmHg 11%
    15:00 +33°C° 0 mm 5 m/s 611 mmHg 12%
    16:00 +32°C° 0 mm 6 m/s 611 mmHg 12%
    17:00 +32°C° 0 mm 7 m/s 611 mmHg 13%
    18:00 +30°C° 0 mm 6 m/s 610 mmHg 15%
    19:00 +28°C° 0 mm 4 m/s 610 mmHg 17%
    20:00 +26°C° 0 mm 3 m/s 610 mmHg 20%
    21:00 +25°C° 0 mm 3 m/s 609 mmHg 22%
    22:00 +24°C° 0 mm 2 m/s 609 mmHg 23%
    23:00 +23°C° 0 mm 2 m/s 609 mmHg 25%
    Mostrar mais